User: anonymous   Login
Location: Vancouver
(49.2500°N, 123.1330°W)
Time: 04:28:29
(UTC-07:00)
Language:

YAOGAN 6 - Orbit

View from above orbital plane
View from above orbital plane
View from above satellite
View from above satellite

Ground track
Ground track

The orbit data is extracted from the following two-line orbital elements,

1 34839U 09021A   18116.13626397  .00000499  00000-0  21846-4 0  9990
2 34839  97.0996 157.0129 0026767 290.8273  69.0099 15.26133054500315
Epoch (UTC): 26 April 2018 03:16:13
Eccentricity: 0.0026767
inclination: 97.0996°
perigee height: 469 km
apogee height: 506 km
right ascension of ascending node: 157.0129°
argument of perigee: 290.8273°
revolutions per day: 15.26133054
mean anomaly at epoch: 69.0099°
orbit number at epoch: 50031

The dashed part of the orbit path shows where the satellite is in the earth's shadow,  

DLR